OK2ZEO-5 Weather Reports


time (UTC)temp
C
wind
direction
speed
KPH
gust
KPH
rain 1hr
cm
rain 24hr
cm
rain mn
cm
humidity
%
barometer
mb
20260507002503 13 158 0.0 6.4 0.00 0.00 0.00 77 1007.1
20260507002003 13 0 0.0 0.0 0.00 0.00 0.00 77 1007.0
20260507001503 13 0 0.0 0.0 0.00 0.00 0.00 77 1007.1
20260507001003 13 0 0.0 0.0 0.00 0.00 0.00 76 1007.1
20260507000719 13 45 0.0 1.6 0.00 0.00 0.00 76 1007.1
20260507000216 13 79 0.0 6.4 0.00 0.00 0.00 77 1007.3
20260506235503 13 0 0.0 0.0 0.00 0.00 0.00 77 1007.3
20260506235218 13 0 0.0 0.0 0.00 0.00 0.00 77 1007.4
20260506234503 14 0 0.0 0.0 0.00 0.00 0.00 76 1007.2
20260506234216 14 267 0.0 1.6 0.00 0.00 0.00 76 1007.2
20260506233503 14 277 1.6 17.7 0.00 0.00 0.00 76 1007.2
20260506233003 15 295 6.4 17.7 0.00 0.00 0.00 74 1007.1
20260506232503 16 303 3.2 17.7 0.00 0.00 0.00 70 1007.1
20260506232003 16 196 0.0 3.2 0.00 0.00 0.00 68 1007.0
20260506231503 17 198 0.0 3.2 0.00 0.00 0.00 67 1006.9
20260506231003 17 142 0.0 3.2 0.00 0.00 0.00 67 1006.9
20260506230503 17 130 1.6 11.3 0.00 0.00 0.00 67 1006.8
20260506230003 17 131 3.2 12.9 0.00 0.00 0.00 67 1006.7
20260506225717 17 132 3.2 14.5 0.00 0.00 0.00 66 1006.7
20260506225003 17 133 1.6 16.1 0.00 0.00 0.00 66 1006.6
20260506224503 17 131 1.6 16.1 0.00 0.00 0.00 66 1006.6
20260506224003 17 125 3.2 16.1 0.00 0.00 0.00 66 1006.4
20260506223503 17 125 4.8 16.1 0.00 0.00 0.00 65 1006.4
20260506223003 17 125 6.4 27.4 0.00 0.00 0.00 65 1006.2
20260506222719 17 125 4.8 27.4 0.00 0.00 0.00 65 1006.2
20260506222003 17 130 3.2 12.9 0.00 0.00 0.00 65 1006.2
20260506221504 17 128 8.0 20.9 0.00 0.00 0.00 65 1006.4
20260506221003 17 126 8.0 20.9 0.00 0.00 0.00 64 1006.2
20260506220508 17 125 4.8 19.3 0.00 0.00 0.00 64 1006.2
20260506220004 17 126 4.8 19.3 0.00 0.00 0.00 64 1006.3
20260506215503 17 126 3.2 19.3 0.00 0.00 0.00 64 1006.2
20260506215218 17 129 1.6 14.5 0.00 0.00 0.00 64 1006.2
20260506214503 17 123 1.6 12.9 0.00 0.00 0.00 64 1006.1
20260506214003 17 126 1.6 11.3 0.00 0.00 0.00 64 1006.2
20260506213503 17 124 1.6 12.9 0.00 0.00 0.00 64 1006.1
20260506213003 17 119 1.6 12.9 0.00 0.00 0.00 63 1006.2
20260506212719 17 118 1.6 12.9 0.00 0.00 0.00 63 1006.2
20260506212003 18 134 1.6 14.5 0.00 0.00 0.00 62 1006.1
20260506211716 18 135 1.6 14.5 0.00 0.00 0.00 62 1006.1
20260506211003 18 113 0.0 12.9 0.00 0.00 0.00 62 1006.1
20260506210503 18 115 0.0 12.9 0.00 0.00 0.00 62 1006.1
20260506210003 18 131 0.0 6.4 0.00 0.00 0.00 61 1006.1
20260506205503 18 132 0.0 9.7 0.00 0.00 0.00 61 1006.1
20260506205003 18 131 0.0 9.7 0.00 0.00 0.00 61 1006.0
20260506204503 18 129 0.0 3.2 0.00 0.00 0.00 61 1006.0
20260506204003 18 181 0.0 1.6 0.00 0.00 0.00 61 1006.0
20260506203503 18 0 0.0 0.0 0.00 0.00 0.00 61 1006.0
20260506203003 18 0 0.0 0.0 0.00 0.00 0.00 60 1006.0
20260506202503 18 0 0.0 0.0 0.00 0.00 0.00 60 1005.9
20260506202219 18 0 0.0 0.0 0.00 0.00 0.00 59 1005.9
20260506201503 18 0 0.0 0.0 0.00 0.00 0.00 58 1005.8
20260506201003 18 0 0.0 0.0 0.00 0.00 0.00 58 1005.7
20260506200503 18 128 0.0 6.4 0.00 0.00 0.00 57 1005.7
20260506200003 19 128 0.0 6.4 0.00 0.00 0.00 57 1005.6
20260506195503 19 141 0.0 6.4 0.00 0.00 0.00 57 1005.6
20260506195003 19 131 1.6 12.9 0.00 0.00 0.00 57 1005.6
20260506194503 19 136 1.6 12.9 0.00 0.00 0.00 56 1005.6
20260506194003 19 141 1.6 12.9 0.00 0.00 0.00 56 1005.5
20260506193504 19 130 3.2 20.9 0.00 0.00 0.00 56 1005.5
20260506193003 20 132 3.2 22.5 0.00 0.00 0.00 56 1005.5
20260506192503 20 135 1.6 22.5 0.00 0.00 0.00 55 1005.5
20260506192003 20 127 1.6 14.5 0.00 0.00 0.00 55 1005.6
20260506191503 20 138 1.6 14.5 0.00 0.00 0.00 54 1005.5
20260506191003 20 132 3.2 17.7 0.00 0.00 0.00 54 1005.5
20260506190503 20 127 4.8 19.3 0.00 0.00 0.00 54 1005.4
20260506190003 20 128 6.4 20.9 0.00 0.00 0.00 53 1005.4
20260506185503 20 126 11.3 24.1 0.00 0.00 0.00 53 1005.4
20260506185216 20 127 9.7 24.1 0.00 0.00 0.00 53 1005.4
20260506184717 20 126 9.7 24.1 0.00 0.00 0.00 53 1005.4
20260506184218 20 123 6.4 20.9 0.00 0.00 0.00 52 1005.3
20260506183503 20 133 1.6 16.1 0.00 0.00 0.00 52 1005.3
20260506183003 20 139 3.2 17.7 0.00 0.00 0.00 52 1005.2
20260506182503 20 154 4.8 22.5 0.00 0.00 0.00 52 1005.2
20260506182218 21 157 4.8 22.5 0.00 0.00 0.00 52 1005.1
20260506181503 21 154 1.6 11.3 0.00 0.00 0.00 52 1005.1
20260506181003 21 130 1.6 11.3 0.00 0.00 0.00 52 1005.0
20260506180503 21 136 1.6 9.7 0.00 0.00 0.00 52 1004.9
20260506180004 21 133 3.2 19.3 0.00 0.00 0.00 52 1005.0
20260506175503 21 129 3.2 19.3 0.00 0.00 0.00 51 1004.9
20260506175003 21 127 4.8 22.5 0.00 0.00 0.00 51 1004.7
20260506174503 21 127 8.0 24.1 0.00 0.00 0.00 51 1004.8
20260506174003 21 126 9.7 24.1 0.00 0.00 0.00 51 1004.8
20260506173503 21 131 8.0 25.7 0.00 0.00 0.00 50 1004.9
20260506173003 21 138 8.0 25.7 0.00 0.00 0.00 50 1004.9
20260506172503 21 132 6.4 19.3 0.00 0.00 0.00 50 1004.9
20260506172003 21 129 8.0 19.3 0.00 0.00 0.00 50 1004.9
20260506171503 21 129 8.0 17.7 0.00 0.00 0.00 50 1004.9
20260506171003 21 129 6.4 19.3 0.00 0.00 0.00 50 1004.9
20260506170503 21 132 4.8 19.3 0.00 0.00 0.00 49 1004.9
20260506170003 21 134 3.2 14.5 0.00 0.00 0.00 49 1004.9
20260506165503 21 131 4.8 16.1 0.00 0.00 0.00 49 1005.0
20260506165003 21 128 9.7 20.9 0.00 0.00 0.00 49 1004.9
20260506164503 21 126 9.7 27.4 0.00 0.00 0.00 49 1004.9
20260506164003 21 127 8.0 27.4 0.00 0.00 0.00 50 1004.8
20260506163503 21 129 6.4 24.1 0.00 0.00 0.00 50 1004.9
20260506163215 21 130 8.0 24.1 0.00 0.00 0.00 50 1004.9
20260506162716 21 129 6.4 29.0 0.00 0.00 0.00 50 1005.0
20260506162218 21 138 9.7 29.0 0.00 0.00 0.00 49 1005.1
20260506161503 22 142 11.3 33.8 0.00 0.00 0.00 49 1005.2
20260506161003 22 128 12.9 33.8 0.00 0.00 0.00 51 1005.3
20260506160503 22 126 9.7 24.1 0.00 0.00 0.00 51 1005.4
20260506160003 22 126 8.0 27.4 0.00 0.00 0.00 51 1005.4
20260506155503 22 123 9.7 27.4 0.00 0.00 0.00 52 1005.5
20260506155003 22 124 11.3 24.1 0.00 0.00 0.00 52 1005.5
20260506154503 21 126 8.0 20.9 0.00 0.00 0.00 54 1005.7
20260506154003 21 129 9.7 22.5 0.00 0.00 0.00 55 1005.8
20260506153503 21 130 8.0 22.5 0.00 0.00 0.00 56 1005.9
20260506153219 21 130 4.8 22.5 0.00 0.00 0.00 57 1006.0
20260506152503 21 130 6.4 25.7 0.00 0.00 0.00 54 1006.1
20260506152003 21 128 8.0 27.4 0.00 0.00 0.00 54 1006.2
20260506151718 21 127 8.0 27.4 0.00 0.00 0.00 54 1006.2
20260506151003 21 129 8.0 20.9 0.00 0.00 0.00 54 1006.2
20260506150503 21 131 8.0 20.9 0.00 0.00 0.00 55 1006.3
20260506150003 21 129 8.0 20.9 0.00 0.00 0.00 54 1006.3
20260506145503 21 128 6.4 22.5 0.00 0.00 0.00 52 1006.3
20260506145003 21 124 6.4 22.5 0.00 0.00 0.00 52 1006.4
20260506144503 22 121 9.7 30.6 0.00 0.00 0.00 52 1006.4
20260506144003 22 125 11.3 30.6 0.00 0.00 0.00 51 1006.4
20260506143503 22 129 9.7 30.6 0.00 0.00 0.00 50 1006.4
20260506143003 22 126 11.3 27.4 0.00 0.00 0.00 49 1006.5
20260506142503 22 128 8.0 27.4 0.00 0.00 0.00 48 1006.6
20260506142003 22 155 4.8 20.9 0.00 0.00 0.00 47 1006.6
20260506141503 22 150 6.4 22.5 0.00 0.00 0.00 46 1006.6
20260506141003 22 136 4.8 22.5 0.00 0.00 0.00 45 1006.6
20260506140503 22 145 3.2 17.7 0.00 0.00 0.00 45 1006.6
20260506140003 23 150 3.2 19.3 0.00 0.00 0.00 44 1006.7
20260506135503 23 137 4.8 19.3 0.00 0.00 0.00 44 1006.7
20260506135003 22 129 6.4 22.5 0.00 0.00 0.00 44 1006.8
20260506134504 22 137 3.2 22.5 0.00 0.00 0.00 44 1006.9
20260506134003 23 145 1.6 16.1 0.00 0.00 0.00 44 1007.0
20260506133717 23 149 3.2 16.1 0.00 0.00 0.00 44 1007.0
20260506133218 22 139 8.0 22.5 0.00 0.00 0.00 46 1007.0
20260506132503 22 127 11.3 25.7 0.00 0.00 0.00 46 1007.1
20260506132216 22 128 9.7 25.7 0.00 0.00 0.00 47 1007.1
20260506131503 22 160 6.4 24.1 0.00 0.00 0.00 46 1007.3
20260506131003 22 171 3.2 20.9 0.00 0.00 0.00 45 1007.3
20260506130503 22 143 3.2 24.1 0.00 0.00 0.00 45 1007.3
20260506130003 22 147 4.8 24.1 0.00 0.00 0.00 44 1007.3
20260506125503 22 171 6.4 19.3 0.00 0.00 0.00 44 1007.4
20260506125003 22 167 6.4 16.1 0.00 0.00 0.00 43 1007.5
20260506124503 22 173 6.4 24.1 0.00 0.00 0.00 44 1007.5
20260506124003 22 174 6.4 24.1 0.00 0.00 0.00 43 1007.6
20260506123503 22 173 6.4 20.9 0.00 0.00 0.00 43 1007.6
20260506123003 22 191 8.0 27.4 0.00 0.00 0.00 43 1007.5
20260506122503 22 198 6.4 27.4 0.00 0.00 0.00 43 1007.6
20260506122003 22 204 1.6 12.9 0.00 0.00 0.00 45 1007.6
20260506121503 22 212 0.0 9.7 0.00 0.00 0.00 47 1007.6
20260506121003 21 192 0.0 8.0 0.00 0.00 0.00 47 1007.6
20260506120503 21 148 0.0 12.9 0.00 0.00 0.00 48 1007.7
20260506120003 21 186 4.8 17.7 0.00 0.00 0.00 48 1007.7
20260506115503 21 193 8.0 17.7 0.00 0.00 0.00 48 1007.7
20260506115003 21 181 6.4 19.3 0.00 0.00 0.00 47 1007.8
20260506114503 22 156 4.8 19.3 0.00 0.00 0.00 47 1007.7
20260506114003 22 161 3.2 17.7 0.00 0.00 0.00 47 1007.8
20260506113503 22 176 3.2 14.5 0.00 0.00 0.00 46 1007.8
20260506113003 22 175 3.2 16.1 0.00 0.00 0.00 47 1007.9
20260506112719 22 185 1.6 17.7 0.00 0.00 0.00 48 1008.0
20260506112003 22 162 4.8 22.5 0.00 0.00 0.00 49 1008.0
20260506111503 22 164 6.4 22.5 0.00 0.00 0.00 47 1008.0
20260506111003 22 177 6.4 27.4 0.00 0.00 0.00 47 1008.0
20260506110719 22 179 4.8 27.4 0.00 0.00 0.00 48 1008.1
20260506110003 22 193 3.2 24.1 0.00 0.00 0.00 48 1008.1
20260506105503 21 183 6.4 19.3 0.00 0.00 0.00 47 1008.2
20260506105003 22 151 8.0 20.9 0.00 0.00 0.00 46 1008.2
20260506104503 22 129 8.0 20.9 0.00 0.00 0.00 48 1008.1
20260506104003 22 132 4.8 20.9 0.00 0.00 0.00 47 1008.1
20260506103503 22 196 3.2 19.3 0.00 0.00 0.00 47 1008.3
20260506103003 22 194 1.6 19.3 0.00 0.00 0.00 47 1008.3
20260506102503 21 189 3.2 14.5 0.00 0.00 0.00 50 1008.4
20260506102003 21 188 4.8 20.9 0.00 0.00 0.00 49 1008.4
20260506101503 21 171 6.4 20.9 0.00 0.00 0.00 50 1008.5
20260506101003 21 165 4.8 20.9 0.00 0.00 0.00 49 1008.4
20260506100503 21 210 3.2 20.9 0.00 0.00 0.00 50 1008.5
20260506100219 21 205 4.8 22.5 0.00 0.00 0.00 50 1008.5
20260506095503 21 157 6.4 22.5 0.00 0.00 0.00 49 1008.5
20260506095003 21 138 4.8 17.7 0.00 0.00 0.00 50 1008.5
20260506094503 21 244 4.8 17.7 0.00 0.00 0.00 50 1008.6
20260506094003 20 250 4.8 17.7 0.00 0.00 0.00 53 1008.6
20260506093503 20 260 0.0 12.9 0.00 0.00 0.00 54 1008.6
20260506093217 20 258 1.6 12.9 0.00 0.00 0.00 55 1008.6
20260506092503 20 268 1.6 17.7 0.00 0.00 0.00 53 1008.5
20260506092003 20 219 1.6 16.1 0.00 0.00 0.00 54 1008.5
20260506091503 20 207 1.6 16.1 0.00 0.00 0.00 54 1008.6
20260506091003 20 213 1.6 11.3 0.00 0.00 0.00 54 1008.6
20260506090503 20 227 4.8 16.1 0.00 0.00 0.00 55 1008.6
20260506090003 20 241 4.8 16.1 0.00 0.00 0.00 55 1008.5
20260506085503 19 254 3.2 12.9 0.00 0.00 0.00 57 1008.5
20260506085003 19 255 3.2 16.1 0.00 0.00 0.00 56 1008.5
20260506084503 18 274 1.6 16.1 0.00 0.00 0.00 57 1008.6
20260506084003 18 249 1.6 14.5 0.00 0.00 0.00 57 1008.6
20260506083503 18 209 1.6 12.9 0.00 0.00 0.00 58 1008.6
20260506083003 18 274 6.4 17.7 0.00 0.00 0.00 59 1008.6
20260506082503 18 271 6.4 17.7 0.00 0.00 0.00 60 1008.6
20260506082218 18 262 4.8 17.7 0.00 0.00 0.00 61 1008.6
20260506081503 18 250 0.0 9.7 0.00 0.00 0.00 59 1008.6
20260506081003 18 276 1.6 17.7 0.00 0.00 0.00 59 1008.5
20260506080718 18 276 1.6 17.7 0.00 0.00 0.00 60 1008.6
20260506080218 18 267 0.0 6.4 0.00 0.00 0.00 62 1008.5
20260506073503 18 230 3.2 12.9 0.00 0.00 0.00 64 1008.5
20260506073003 17 236 4.8 19.3 0.00 0.00 0.00 62 1008.6
20260506072503 17 258 4.8 19.3 0.00 0.00 0.00 63 1008.6
20260506072003 17 234 4.8 16.1 0.00 0.00 0.00 64 1008.6
20260506071503 17 212 4.8 9.7 0.00 0.00 0.00 63 1008.5
20260506071003 17 225 1.6 12.9 0.00 0.00 0.00 66 1008.5
20260506070503 17 213 1.6 16.1 0.00 0.00 0.00 66 1008.6
20260506062503 16 214 0.0 11.3 0.00 0.00 0.00 70 1008.6
20260506062218 16 210 1.6 11.3 0.00 0.00 0.00 69 1008.6
20260506061503 16 202 0.0 9.7 0.00 0.00 0.00 70 1008.5
20260506061003 16 124 0.0 8.0 0.00 0.00 0.00 73 1008.6
20260506060503 16 120 0.0 8.0 0.00 0.00 0.00 74 1008.4
20260506051219 12 0 0.0 0.0 0.00 0.00 0.00 76 1008.2
20260506050503 11 0 0.0 0.0 0.00 0.00 0.00 76 1008.2
20260506045003 10 0 0.0 0.0 0.00 0.00 0.00 73 1008.0
20260506044716 10 0 0.0 0.0 0.00 0.00 0.00 72 1008.0
20260506044003 10 0 0.0 0.0 0.00 0.00 0.00 74 1008.0
20260506043504 9 0 0.0 0.0 0.00 0.00 0.00 75 1008.0
20260506043219 9 0 0.0 0.0 0.00 0.00 0.00 75 1008.0
20260506042503 9 0 0.0 0.0 0.00 0.00 0.00 76 1007.7
20260506042217 9 0 0.0 0.0 0.00 0.00 0.00 76 1007.6
20260506041503 10 0 0.0 0.0 0.00 0.00 0.00 76 1007.5
20260506041003 10 0 0.0 0.0 0.00 0.00 0.00 77 1007.5
20260506040503 10 0 0.0 0.0 0.00 0.00 0.00 77 1007.5
20260506040003 10 0 0.0 0.0 0.00 0.00 0.00 77 1007.5
20260506035503 10 0 0.0 0.0 0.00 0.00 0.00 77 1007.6
20260506035003 10 0 0.0 0.0 0.00 0.00 0.00 77 1007.5
20260506034503 10 0 0.0 0.0 0.00 0.00 0.00 77 1007.5
20260506034217 10 0 0.0 0.0 0.00 0.00 0.00 77 1007.5
20260506033503 10 0 0.0 0.0 0.00 0.00 0.00 77 1007.5
20260506033004 11 0 0.0 0.0 0.00 0.00 0.00 77 1007.4
20260506032503 11 0 0.0 0.0 0.00 0.00 0.00 77 1007.3
20260506032003 11 143 0.0 4.8 0.00 0.00 0.00 77 1007.2
20260506031503 11 143 0.0 4.8 0.00 0.00 0.00 77 1007.2
20260506031003 11 0 0.0 0.0 0.00 0.00 0.00 77 1007.3
20260506030503 11 145 0.0 6.4 0.00 0.00 0.00 77 1007.3
20260506030003 11 145 0.0 6.4 0.00 0.00 0.00 77 1007.3
20260506025503 11 0 0.0 0.0 0.00 0.00 0.00 77 1007.3
20260506025003 11 0 0.0 0.0 0.00 0.00 0.00 77 1007.2
20260506024503 11 0 0.0 0.0 0.00 0.00 0.00 77 1007.2
20260506024003 11 0 0.0 0.0 0.00 0.00 0.00 77 1007.1
20260506023503 11 0 0.0 0.0 0.00 0.00 0.00 77 1007.1
20260506023003 11 0 0.0 0.0 0.00 0.00 0.00 77 1007.2
20260506022503 11 0 0.0 0.0 0.00 0.00 0.00 77 1007.0
20260506022003 11 145 0.0 1.6 0.00 0.00 0.00 77 1007.0
20260506021503 11 186 0.0 1.6 0.00 0.00 0.00 77 1007.0
20260506021003 11 258 0.0 1.6 0.00 0.00 0.00 77 1007.0
20260506020503 11 0 0.0 0.0 0.00 0.00 0.00 77 1007.1
20260506020003 11 0 0.0 0.0 0.00 0.00 0.00 77 1007.1
20260506015503 11 0 0.0 0.0 0.00 0.00 0.00 77 1007.0
20260506015003 11 0 0.0 0.0 0.00 0.00 0.00 77 1006.9
20260506014719 11 0 0.0 0.0 0.00 0.00 0.00 77 1007.0
20260506014003 11 0 0.0 0.0 0.00 0.00 0.00 76 1007.1
20260506013503 11 0 0.0 0.0 0.00 0.00 0.00 77 1007.1
20260506013003 11 0 0.0 0.0 0.00 0.00 0.00 76 1007.2
20260506012504 11 0 0.0 0.0 0.00 0.00 0.00 76 1007.2
20260506012216 11 0 0.0 0.0 0.00 0.00 0.00 76 1007.3
20260506011503 11 0 0.0 0.0 0.00 0.00 0.00 75 1007.1
20260506011003 11 0 0.0 0.0 0.00 0.00 0.00 75 1006.9
20260506010719 11 0 0.0 0.0 0.00 0.00 0.00 75 1006.9
20260506010003 11 0 0.0 0.0 0.00 0.00 0.00 75 1006.9
20260506005717 12 287 0.0 3.2 0.00 0.00 0.00 74 1007.0
20260506005003 12 287 0.0 3.2 0.00 0.00 0.00 74 1006.9
20260506004504 12 0 0.0 0.0 0.00 0.00 0.00 73 1006.8
20260506004003 12 0 0.0 0.0 0.00 0.00 0.00 73 1007.0
20260506003716 12 0 0.0 0.0 0.00 0.00 0.00 72 1007.0
20260506003218 12 0 0.0 0.0 0.00 0.00 0.00 72 1007.0
20260506002718 12 0 0.0 0.0 0.00 0.00 0.00 72 1007.0